Temperature
16 16 16 16 16 16 17 17 16 16 16 16 16 16 16 16 16 16 16 15 15 15 15 15 15 15 15 14 14 14 14 14 14 14 14 14 14 14 13 13 13 13 13
17 16 16 16 16 16 16 16 16 16 16 16 16 16 16 16 16 15 15 15 15 15 15 15 15 14 14 14 14 14 14 14 14 14 14 14 13 13 13 13 13 13 13
16 16 16 16 16 16 16 16 16 16 16 16 16 16 16 15 15 15 15 15 15 15 15 15 14 14 14 14 14 14 14 14 14 14 14 14 13 13 13 13 13 12 12
16 16 16 16 16 16 16 16 16 16 16 16 16 16 15 15 15 15 15 15 15 15 15 15 15 15 14 14 14 14 14 14 14 14 14 13 13 13 12 12 12 12 12
16 16 16 16 16 15 15 15 15 15 16 16 15 15 15 15 15 15 15 15 15 15 15 15 15 15 14 14 14 14 14 14 14 14 14 13 13 12 12 12 12 12 12
16 15 15 15 15 15 15 15 15 15 15 15 15 15 15 15 15 15 15 15 15 15 15 15 15 14 14 14 14 14 14 14 14 14 13 13 13 12 12 12 12 12 12
15 15 15 15 15 15 15 15 15 15 15 15 15 15 15 15 15 15 15 15 14 14 14 14 14 14 14 14 14 14 14 14 13 13 13 13 12 12 12 12 12 11 11
15 15 15 15 15 15 15 15 15 15 15 15 15 15 15 15 15 15 14 14 14 14 14 14 14 14 14 14 14 14 14 13 13 13 13 13 12 12 12 11 11 11 11
14 14 14 14 14 14 14 14 14 15 14 14 14 14 14 14 14 14 14 14 14 14 14 14 14 13 13 14 13 13 13 13 13 13 13 12 12 11 11 11 11 11 11
14 14 14 14 14 14 14 14 14 14 14 14 14 14 14 14 14 14 14 14 14 14 14 14 13 13 13 13 13 13 13 13 13 13 12 12 12 11 11 11 11 11 11
13 13 13 13 13 13 14 14 14 14 14 14 14 14 14 14 14 13 13 13 13 14 13 13 13 13 13 13 13 13 13 13 12 12 12 12 11 11 11 11 11 11 10
13 13 13 13 13 13 13 13 13 13 13 13 13 13 13 13 13 13 13 13 13 13 13 13 13 13 13 13 13 13 12 12 12 12 12 11 11 11 11 10 10 10 10
12 12 13 13 13 13 13 13 13 13 13 13 13 13 13 13 13 13 13 13 13 13 13 13 13 13 13 13 12 12 12 12 12 12 11 11 11 11 10 10 10 10 10
12 12 12 12 12 12 12 13 13 13 13 12 12 13 13 13 13 13 12 12 12 12 12 12 12 12 12 12 12 12 12 12 12 11 11 11 11 11 10 10 10 9 9
12 12 12 12 12 12 12 12 12 12 12 12 12 12 12 12 12 12 12 12 12 12 12 12 12 12 12 12 12 12 12 11 11 11 11 11 11 10 10 10 10 9 9
11 11 12 11 11 12 12 12 12 12 12 12 12 12 12 12 12 12 12 12 12 11 11 12 12 11 11 11 11 11 11 11 11 11 11 11 10 10 10 10 9 9 9
11 11 11 11 11 11 11 12 12 12 11 11 11 11 11 11 11 11 11 11 11 11 11 11 11 11 11 11 11 11 11 11 11 10 10 10 10 10 10 10 9 9 9
11 11 11 11 11 11 11 11 11 11 11 11 11 11 11 11 11 11 11 11 11 11 11 11 11 11 11 11 11 11 11 10 10 10 10 10 10 9 9 9 9 9 9
10 10 10 10 10 10 10 10 11 11 11 11 11 11 11 11 11 11 11 11 10 10 10 10 10 10 10 10 10 10 10 10 10 10 10 9 9 9 9 9 9 9 8
10 10 10 10 10 10 10 10 10 10 10 10 10 10 10 10 10 10 10 10 10 10 10 10 10 10 10 10 9 9 9 9 9 9 9 9 9 9 8 8 8 8 8
9 10 10 10 10 10 10 10 10 10 10 10 10 10 10 9 9 10 10 10 10 9 9 9 9 9 9 9 9 9 8 8 8 9 9 9 8 8 8 8 8 8 8
9 9 9 9 9 9 9 9 9 9 9 9 9 9 9 9 9 9 9 9 9 9 9 9 9 9 9 8 8 8 7 7 8 8 8 8 8 8 8 7 7 7 7
8 8 9 9 9 9 9 9 9 9 9 9 8 9 9 9 9 9 9 9 9 9 9 8 8 8 8 8 8 7 7 7 7 7 7 7 7 7 7 7 7 7 7
8 8 8 8 8 8 8 8 8 8 8 8 8 8 8 8 8 8 8 8 8 8 8 8 8 8 8 8 7 7 7 7 7 6 6 6 6 6 6 6 6 6 6
8 8 8 8 8 8 8 8 8 8 8 8 8 8 8 8 8 8 8 7 7 7 7 7 7 7 7 7 7 7 7 7 7 6 6 6 6 6 6 6 6 6 6
7 7 7 7 7 7 7 7 7 7 7 7 7 7 7 7 7 7 7 7 7 7 7 7 7 7 7 7 7 7 6 6 6 6 6 5 5 5 5 5 5 5 5
Wind_Speed
2 3 9 10 12 13 13 13 13 13 13 13 13 13 14 14 14 14 14 14 14 14 14 15 15 15 15 15 15 15 16 15 15 14 14 13 13 13 13 12 11 10 11
5 6 10 11 12 12 13 13 13 13 13 12 13 13 13 13 13 13 13 13 13 13 13 14 14 15 15 15 15 15 15 14 14 13 13 12 12 12 12 11 11 10 11
7 8 10 10 12 12 12 13 13 13 13 12 12 12 12 12 12 12 13 13 13 12 13 13 14 14 14 14 14 14 14 13 13 13 11 10 9 11 11 10 10 10 10
7 8 9 11 11 12 12 13 13 13 13 12 12 12 12 12 12 12 12 12 12 12 13 13 13 13 13 13 13 13 13 12 12 12 10 9 7 9 10 9 9 9 9
6 8 10 12 11 11 12 12 12 12 12 12 11 11 11 11 11 11 11 12 12 12 13 13 13 13 12 12 12 12 12 12 11 10 9 8 7 8 8 8 9 8 9
6 7 9 11 11 10 11 11 11 11 11 11 11 11 11 11 11 11 11 11 11 12 12 13 12 12 11 11 11 11 11 11 10 10 8 7 6 7 8 8 8 8 7
6 7 9 11 10 9 10 11 10 10 10 11 11 11 11 11 11 10 11 11 11 11 12 12 11 11 11 10 10 11 11 11 10 8 7 6 6 7 7 7 7 7 7
6 7 8 9 9 9 9 10 9 9 9 10 10 10 10 10 10 10 10 11 11 11 11 11 11 10 10 10 10 10 10 10 8 7 6 5 5 6 6 6 6 6 6
6 6 6 7 8 8 8 9 9 9 9 9 9 10 10 10 10 10 9 10 11 10 10 10 9 9 9 9 9 9 9 9 8 5 4 4 5 5 5 5 5 5 5
4 5 5 5 6 6 6 8 8 8 8 8 9 9 9 10 10 9 9 10 10 9 9 9 8 8 8 8 8 8 8 8 7 5 4 4 4 4 4 4 4 4 4
3 3 4 3 4 4 5 6 7 8 7 8 8 8 8 8 9 9 9 10 9 9 8 8 7 6 6 6 7 7 6 6 5 4 3 4 3 3 3 3 2 2 3
1 1 3 3 2 3 4 5 5 5 6 6 6 6 6 6 7 7 9 9 9 8 7 6 5 5 4 4 4 5 5 5 4 3 3 3 3 2 2 2 2 2 2
1 1 2 3 2 2 2 4 3 3 3 4 5 5 6 6 5 5 6 7 6 6 4 4 3 3 3 4 3 4 4 3 3 3 3 3 2 1 1 0 0 1 2
1 1 1 2 2 2 2 3 3 3 3 3 4 5 5 4 3 4 3 4 4 4 3 3 3 2 2 3 4 4 3 3 3 3 3 3 3 2 1 1 2 2 2
1 1 1 2 3 2 2 3 3 3 3 3 4 4 4 4 3 3 3 3 3 4 3 3 3 2 1 1 2 3 3 3 4 3 3 4 4 3 3 3 3 3 3
2 2 2 2 3 3 3 3 3 3 3 3 3 3 4 4 4 4 3 3 3 3 4 4 3 2 1 1 1 3 4 4 4 4 4 4 5 4 4 4 4 5 5
2 2 2 3 2 3 4 3 3 3 4 3 3 4 4 5 5 4 3 2 3 4 4 3 3 2 1 1 1 2 3 3 4 4 4 4 4 4 4 5 5 5 6
2 2 2 2 2 3 3 3 2 3 3 3 3 4 4 5 5 4 3 2 3 3 3 2 2 2 2 1 2 2 2 3 3 4 4 4 4 3 4 4 5 6 6
2 2 2 2 2 2 3 3 2 3 3 3 3 4 4 4 5 4 4 3 3 3 2 2 2 2 2 2 2 2 2 2 3 3 3 3 4 4 3 4 4 5 6
2 2 2 2 2 2 2 2 2 2 2 2 3 3 4 4 5 4 4 3 4 2 2 2 2 2 2 2 2 2 2 2 2 3 3 3 3 4 3 3 3 4 6
1 2 3 2 3 2 2 3 3 3 3 3 3 4 4 4 4 4 3 3 3 3 3 3 2 2 1 1 0 2 2 2 2 2 2 2 2 3 3 3 3 3 5
1 2 2 3 3 3 3 3 3 3 3 3 3 3 4 5 5 4 4 4 4 3 3 2 2 1 1 1 1 1 1 2 2 3 2 3 3 2 2 3 4 4 4
2 3 3 3 4 4 4 2 2 1 1 2 2 3 3 4 4 4 3 3 3 3 4 4 4 4 3 2 2 2 2 3 2 2 2 2 2 2 2 3 4 4 5
4 3 3 3 3 3 4 4 5 3 4 4 3 3 2 3 3 3 4 3 3 3 4 4 3 3 4 3 3 2 2 2 2 2 2 2 2 3 3 3 3 4 5
3 3 3 3 2 2 3 5 5 4 4 2 2 3 3 3 3 3 3 3 4 4 4 4 3 3 3 3 3 2 2 1 2 3 3 3 2 3 3 3 3 3 4
2 2 2 2 2 2 3 4 4 5 4 3 4 4 3 3 3 3 4 4 4 4 4 4 4 4 3 3 3 3 3 3 3 3 4 4 4 3 4 3 3 3 3
Wind_Direction
175 170 157 151 140 134 130 126 122 119 116 113 110 109 108 105 105 108 110 111 109 108 108 107 105 104 101 99 96 94 92 89 86 83 82 83 81 80 77 78 77 73 74
160 153 145 146 139 137 133 129 125 122 120 118 115 113 112 110 109 110 110 112 112 111 110 110 108 106 104 101 98 96 93 89 85 81 77 76 80 80 77 76 79 77 74
138 139 139 138 139 136 133 130 128 126 124 122 120 118 116 114 112 113 112 111 114 115 115 113 112 110 107 104 101 98 94 90 88 83 75 66 72 80 78 76 74 75 74
132 137 139 135 129 134 133 132 131 130 127 125 124 123 121 118 116 116 115 114 114 116 117 117 116 114 111 107 103 100 96 94 92 84 74 66 68 80 78 73 72 73 75
123 129 135 132 130 129 130 131 132 133 132 130 129 128 126 124 120 119 120 118 116 117 120 120 118 116 114 109 103 101 98 96 92 82 73 64 66 80 78 73 71 72 71
120 119 127 128 130 129 133 131 129 133 136 137 135 132 130 128 125 124 125 124 121 120 121 121 120 118 116 112 105 101 101 96 90 81 73 66 68 79 78 76 73 71 69
121 120 129 127 127 125 132 135 135 133 136 141 140 137 134 134 131 129 130 130 127 125 123 123 123 121 117 113 106 102 102 96 94 85 77 74 77 82 79 75 71 69 65
123 124 131 133 130 128 127 132 137 137 136 141 145 141 138 135 135 134 136 135 132 129 127 124 126 124 119 114 108 106 102 97 97 90 87 87 86 84 79 71 69 69 66
101 112 114 126 131 133 129 133 134 139 138 137 140 144 143 140 138 136 138 138 138 136 132 129 125 128 125 119 114 111 106 100 95 92 91 95 92 86 81 76 73 68 64
93 105 100 110 120 124 125 135 135 134 137 136 132 134 143 144 144 142 140 138 139 141 141 137 132 131 129 123 118 116 113 105 96 98 98 104 95 89 83 76 74 66 58
81 107 117 106 115 123 126 135 137 137 135 134 135 133 134 141 143 145 142 139 136 139 143 144 141 136 134 126 120 117 117 111 106 109 120 121 109 92 80 73 66 60 48
79 136 133 135 115 127 133 137 132 132 136 135 136 136 132 136 142 147 146 143 140 136 137 138 140 139 132 125 121 120 124 121 118 130 138 142 130 106 84 78 54 37 17
169 194 162 161 144 127 128 139 131 133 135 139 139 139 136 131 138 142 143 142 139 136 131 127 123 124 129 137 136 135 136 137 140 156 167 168 162 144 114 92 356 344 343
165 251 182 162 153 143 146 153 140 140 143 147 154 148 143 136 138 151 151 150 146 148 142 137 138 138 130 147 155 153 154 161 167 170 180 188 197 208 237 275 290 298 314
173 249 212 175 168 162 150 158 148 149 153 153 149 153 150 152 157 154 156 163 159 160 161 162 153 151 153 160 175 166 162 169 182 185 195 201 211 225 241 259 276 288 296
194 231 195 186 177 156 162 161 159 160 158 151 150 156 153 157 163 160 157 164 167 177 179 175 168 169 185 181 202 190 182 180 184 190 196 210 217 224 241 257 268 279 285
190 224 192 178 175 164 164 168 160 162 158 161 169 167 155 153 157 160 157 172 187 180 176 166 158 152 174 197 238 227 193 188 185 186 194 205 217 227 237 251 263 274 281
186 211 192 186 172 173 172 173 163 163 162 167 172 170 162 158 160 159 164 181 179 166 166 175 171 169 201 211 236 246 215 190 194 191 190 200 206 217 237 249 263 276 284
192 206 187 173 170 184 183 177 170 170 175 179 177 170 168 164 163 164 172 178 164 163 172 185 173 176 202 233 245 249 227 212 208 194 191 195 199 206 224 248 261 277 285
205 203 189 168 176 185 178 170 169 170 179 177 182 181 173 173 165 162 174 173 166 164 174 181 184 190 200 222 256 282 263 243 220 206 209 201 202 209 219 233 253 274 283
203 187 197 176 194 177 176 185 192 195 187 182 191 184 180 179 175 170 182 183 179 179 186 186 179 189 219 162 94 323 312 276 244 234 215 208 220 222 218 224 244 262 274
238 224 201 188 201 193 192 195 197 196 189 186 196 195 192 187 188 190 190 191 189 185 187 190 177 191 225 191 163 201 276 298 277 250 238 222 224 221 237 248 250 254 262
229 239 236 212 202 197 189 168 161 156 177 190 198 205 207 199 203 206 201 189 194 191 201 206 199 194 214 240 207 183 187 226 269 272 247 235 228 236 253 250 244 253 266
227 228 230 219 206 201 186 173 175 196 206 212 206 208 217 216 214 211 204 198 197 204 209 216 214 213 198 224 230 213 199 181 193 261 284 266 258 252 250 261 259 262 267
225 219 222 209 205 204 193 187 185 203 224 208 190 196 213 224 222 215 210 207 209 215 218 217 216 222 217 220 207 199 212 218 209 206 255 274 276 260 256 251 252 257 261
240 231 223 197 206 195 185 186 188 201 213 206 206 206 213 223 222 218 217 216 218 221 223 221 212 212 224 224 209 195 193 193 206 203 236 265 273 273 266 259 254 261 265
Height
1508 1510 1512 1513 1514 1515 1515 1516 1517 1518 1519 1520 1520 1521 1522 1522 1523 1523 1524 1524 1524 1525 1525 1525 1526 1526 1526 1526 1526 1526 1526 1526 1526 1526 1526 1526 1526 1525 1525 1525 1524 1524 1524
1507 1509 1511 1513 1514 1515 1515 1516 1517 1517 1519 1520 1521 1521 1522 1523 1523 1524 1524 1524 1525 1525 1525 1526 1526 1526 1526 1527 1527 1527 1527 1527 1527 1527 1526 1526 1526 1526 1525 1525 1525 1524 1524
1507 1508 1510 1512 1513 1514 1515 1515 1516 1517 1518 1520 1520 1521 1522 1523 1523 1524 1524 1525 1525 1525 1526 1526 1526 1527 1527 1527 1527 1528 1527 1527 1527 1527 1527 1527 1526 1526 1526 1525 1525 1525 1524
1507 1508 1509 1511 1512 1513 1514 1515 1516 1517 1518 1519 1520 1521 1522 1523 1524 1524 1524 1525 1525 1526 1526 1526 1527 1527 1527 1528 1528 1528 1528 1528 1528 1528 1527 1527 1527 1527 1526 1526 1525 1525 1524
1506 1507 1508 1510 1511 1512 1514 1515 1515 1516 1518 1519 1520 1521 1522 1523 1523 1524 1525 1525 1525 1526 1526 1526 1527 1527 1528 1528 1528 1528 1528 1528 1528 1528 1528 1527 1527 1527 1526 1526 1525 1525 1524
1506 1507 1508 1509 1511 1512 1513 1514 1515 1516 1517 1518 1520 1521 1521 1522 1523 1524 1525 1525 1526 1526 1526 1527 1527 1528 1528 1528 1528 1528 1528 1528 1528 1528 1528 1528 1527 1527 1526 1526 1525 1525 1524
1505 1506 1508 1509 1510 1511 1513 1514 1515 1515 1516 1518 1519 1520 1521 1522 1523 1523 1524 1525 1525 1526 1526 1527 1527 1528 1528 1528 1528 1528 1528 1528 1528 1528 1527 1527 1527 1527 1526 1525 1525 1524 1524
1504 1505 1507 1508 1509 1510 1511 1513 1514 1515 1516 1517 1518 1519 1521 1521 1522 1523 1524 1524 1525 1526 1526 1527 1527 1528 1528 1528 1528 1528 1528 1528 1527 1527 1527 1527 1527 1526 1526 1525 1524 1524 1523
1504 1505 1506 1507 1508 1509 1510 1512 1513 1514 1515 1516 1517 1518 1520 1521 1521 1522 1523 1524 1525 1526 1526 1527 1527 1527 1527 1528 1528 1528 1528 1527 1527 1527 1527 1526 1526 1526 1525 1524 1524 1523 1523
1503 1503 1504 1506 1507 1508 1509 1511 1512 1513 1514 1515 1516 1517 1519 1520 1521 1521 1522 1523 1524 1525 1525 1526 1527 1527 1527 1527 1527 1528 1527 1527 1527 1526 1526 1526 1525 1525 1524 1524 1523 1522 1522
1501 1502 1503 1504 1506 1506 1508 1509 1510 1512 1513 1514 1515 1516 1517 1519 1520 1520 1521 1522 1523 1524 1525 1525 1526 1526 1526 1526 1527 1527 1527 1526 1526 1526 1525 1525 1524 1524 1523 1522 1522 1521 1521
1499 1500 1502 1503 1504 1505 1506 1507 1509 1510 1511 1512 1514 1515 1516 1517 1518 1519 1520 1521 1522 1523 1523 1524 1524 1525 1525 1525 1525 1526 1525 1525 1525 1525 1524 1524 1523 1523 1522 1521 1521 1520 1519
1499 1499 1500 1501 1502 1503 1504 1505 1506 1508 1509 1511 1512 1513 1514 1515 1516 1517 1518 1519 1520 1521 1522 1522 1523 1523 1524 1524 1524 1524 1524 1524 1523 1523 1523 1522 1522 1521 1521 1520 1519 1519 1518
1496 1497 1499 1499 1500 1501 1502 1503 1504 1506 1507 1508 1510 1511 1512 1513 1514 1515 1516 1517 1517 1518 1520 1520 1521 1522 1522 1522 1522 1522 1522 1522 1522 1521 1521 1521 1520 1520 1519 1518 1518 1517 1516
1494 1495 1496 1497 1498 1499 1500 1501 1502 1504 1505 1506 1508 1509 1510 1511 1512 1513 1514 1515 1515 1516 1517 1518 1519 1519 1520 1520 1520 1520 1520 1520 1520 1519 1519 1519 1518 1518 1517 1516 1516 1515 1514
1493 1493 1494 1495 1496 1496 1497 1498 1500 1501 1503 1504 1505 1507 1508 1509 1510 1511 1511 1513 1513 1514 1515 1516 1517 1517 1518 1518 1518 1518 1517 1517 1517 1517 1517 1516 1516 1515 1515 1514 1513 1513 1512
1490 1491 1491 1492 1493 1494 1494 1496 1497 1499 1500 1501 1503 1504 1505 1506 1507 1508 1509 1510 1511 1512 1513 1514 1514 1515 1515 1516 1515 1515 1515 1514 1514 1514 1514 1514 1513 1513 1512 1511 1511 1510 1509
1487 1488 1489 1489 1490 1491 1492 1493 1495 1496 1497 1499 1500 1501 1502 1503 1504 1505 1506 1507 1508 1509 1510 1511 1511 1512 1512 1512 1512 1512 1512 1511 1511 1511 1511 1511 1510 1510 1509 1508 1508 1507 1506
1485 1485 1486 1487 1487 1488 1489 1491 1492 1493 1494 1496 1497 1498 1499 1500 1501 1502 1503 1504 1505 1506 1507 1508 1508 1509 1509 1509 1509 1509 1509 1508 1508 1508 1507 1507 1507 1506 1506 1505 1505 1504 1503
1482 1482 1483 1484 1485 1485 1486 1487 1489 1490 1491 1493 1494 1494 1496 1497 1498 1499 1500 1501 1501 1502 1503 1504 1505 1506 1506 1506 1505 1505 1505 1504 1504 1504 1504 1504 1503 1503 1502 1502 1501 1500 1499
1478 1479 1480 1481 1482 1482 1483 1484 1485 1486 1487 1489 1490 1491 1493 1494 1495 1495 1496 1497 1497 1498 1499 1501 1501 1502 1502 1502 1502 1501 1501 1501 1500 1500 1500 1500 1499 1499 1499 1498 1497 1496 1495
1474 1475 1476 1477 1478 1478 1479 1481 1481 1482 1483 1485 1486 1488 1489 1490 1491 1492 1493 1493 1494 1495 1496 1496 1497 1497 1498 1499 1498 1498 1497 1497 1496 1496 1496 1495 1495 1495 1495 1494 1493 1492 1491
1470 1471 1472 1473 1474 1475 1476 1477 1478 1479 1480 1481 1482 1484 1485 1486 1488 1488 1489 1490 1491 1491 1492 1492 1493 1493 1493 1494 1494 1495 1493 1491 1492 1491 1491 1491 1491 1491 1491 1490 1489 1488 1487
1466 1467 1468 1469 1470 1471 1472 1473 1473 1474 1475 1476 1478 1479 1481 1482 1484 1485 1486 1486 1487 1488 1489 1489 1489 1489 1489 1489 1489 1490 1490 1489 1489 1487 1487 1487 1487 1487 1486 1486 1485 1484 1483
1462 1464 1465 1465 1466 1467 1468 1469 1469 1471 1472 1473 1474 1475 1476 1478 1479 1480 1482 1482 1483 1484 1485 1485 1485 1485 1485 1485 1484 1484 1485 1485 1485 1484 1482 1482 1482 1483 1482 1482 1481 1480 1478
1460 1461 1461 1461 1462 1463 1464 1465 1466 1467 1468 1469 1470 1470 1472 1473 1474 1475 1477 1478 1479 1480 1481 1481 1481 1481 1481 1481 1480 1480 1480 1480 1480 1480 1479 1477 1477 1478 1478 1477 1477 1475 1474